When you browse on this site, cookies collect data to enhance your experience and personalize the content and advertising you see.
Visit our Privacy Policy to learn more. By continuing to use the site, you agree to this use of cookies and data.
  • In Czech Republic
  • List of Countries
  • For 7 days
  • Water Temperature
  • Satellite Maps
  • Weather Map
  • Weather Widgets
  • user-avatar
    Login

    Hourly Weather Salva

    Today, 26 April, Friday

    Time Temperature Precipitation Wind Pressure Humidity
    00:00 +24°C° 0 mm 2 mps 761 mmHg 44%
    01:00 +22°C° 0 mm 3 mps 761 mmHg 45%
    02:00 +22°C° 0 mm 3 mps 761 mmHg 46%
    03:00 +22°C° 0 mm 3 mps 760 mmHg 49%
    04:00 +22°C° 0 mm 3 mps 760 mmHg 46%
    05:00 +22°C° 0 mm 3 mps 761 mmHg 43%
    06:00 +22°C° 0 mm 3 mps 761 mmHg 41%
    07:00 +25°C° 0 mm 4 mps 761 mmHg 33%
    08:00 +27°C° 0 mm 6 mps 761 mmHg 26%
    09:00 +29°C° 0 mm 7 mps 761 mmHg 19%
    10:00 +30°C° 0 mm 7 mps 761 mmHg 18%
    11:00 +32°C° 0 mm 7 mps 761 mmHg 17%
    12:00 +33°C° 0 mm 8 mps 761 mmHg 15%
    13:00 +33°C° 0 mm 8 mps 761 mmHg 16%
    14:00 +33°C° 0 mm 7 mps 761 mmHg 16%
    15:00 +33°C° 0 mm 7 mps 760 mmHg 17%
    16:00 +32°C° 0 mm 7 mps 760 mmHg 19%
    17:00 +30°C° 0 mm 6 mps 760 mmHg 20%
    18:00 +29°C° 0 mm 5 mps 760 mmHg 22%
    19:00 +28°C° 0 mm 4 mps 761 mmHg 22%
    20:00 +28°C° 0 mm 4 mps 761 mmHg 22%
    21:00 +28°C° 0 mm 3 mps 761 mmHg 22%
    22:00 +28°C° 0 mm 3 mps 761 mmHg 24%
    23:00 +27°C° 0 mm 3 mps 761 mmHg 25%

    Tomorrow, 27 April, Saturday

    Time Temperature Precipitation Wind Pressure Humidity
    00:00 +27°C° 0 mm 2 mps 761 mmHg 26%
    01:00 +26°C° 0 mm 3 mps 760 mmHg 28%
    02:00 +26°C° 0 mm 3 mps 760 mmHg 31%
    03:00 +25°C° 0 mm 3 mps 760 mmHg 34%
    04:00 +25°C° 0 mm 3 mps 760 mmHg 36%
    05:00 +25°C° 0 mm 3 mps 761 mmHg 37%
    06:00 +25°C° 0 mm 2 mps 761 mmHg 39%
    07:00 +27°C° 0 mm 3 mps 761 mmHg 33%
    08:00 +28°C° 0 mm 3 mps 762 mmHg 27%
    09:00 +30°C° 0 mm 4 mps 762 mmHg 22%
    10:00 +30°C° 0 mm 4 mps 762 mmHg 20%
    11:00 +30°C° 0 mm 4 mps 761 mmHg 18%
    12:00 +32°C° 0 mm 4 mps 761 mmHg 17%
    13:00 +32°C° 0 mm 5 mps 761 mmHg 16%
    14:00 +33°C° 0 mm 5 mps 760 mmHg 15%
    15:00 +34°C° 0 mm 6 mps 760 mmHg 15%
    16:00 +33°C° 0 mm 5 mps 759 mmHg 16%
    17:00 +32°C° 0 mm 5 mps 759 mmHg 17%
    18:00 +30°C° 0 mm 4 mps 759 mmHg 18%
    19:00 +30°C° 0 mm 4 mps 760 mmHg 20%
    20:00 +29°C° 0 mm 3 mps 760 mmHg 22%
    21:00 +28°C° 0 mm 2 mps 760 mmHg 24%
    22:00 +27°C° 0 mm 3 mps 760 mmHg 27%
    23:00 +27°C° 0 mm 3 mps 760 mmHg 30%

    Day after tomorrow, 28 April, Sunday

    Time Temperature Precipitation Wind Pressure Humidity
    00:00 +26°C° 0 mm 3 mps 760 mmHg 32%
    01:00 +26°C° 0 mm 3 mps 760 mmHg 34%
    02:00 +25°C° 0 mm 2 mps 759 mmHg 37%
    03:00 +25°C° 0 mm 2 mps 759 mmHg 39%
    04:00 +25°C° 0 mm 2 mps 759 mmHg 38%
    05:00 +26°C° 0 mm 3 mps 760 mmHg 38%
    06:00 +26°C° 0 mm 3 mps 760 mmHg 37%
    07:00 +27°C° 0 mm 4 mps 760 mmHg 36%
    08:00 +28°C° 0 mm 4 mps 760 mmHg 34%
    09:00 +29°C° 0 mm 5 mps 761 mmHg 33%
    10:00 +30°C° 0 mm 4 mps 760 mmHg 32%
    11:00 +31°C° 0 mm 3 mps 760 mmHg 30%
    12:00 +32°C° 0 mm 2 mps 759 mmHg 29%
    13:00 +34°C° 0 mm 2 mps 759 mmHg 27%
    14:00 +35°C° 0 mm 2 mps 758 mmHg 26%
    15:00 +36°C° 0 mm 2 mps 758 mmHg 24%
    16:00 +35°C° 0 mm 3 mps 758 mmHg 26%
    17:00 +35°C° 0 mm 3 mps 758 mmHg 27%
    18:00 +34°C° 0 mm 4 mps 758 mmHg 29%
    19:00 +33°C° 0 mm 4 mps 759 mmHg 32%
    20:00 +32°C° 0 mm 4 mps 759 mmHg 35%
    21:00 +29°C° 0 mm 4 mps 760 mmHg 38%
    22:00 +29°C° 0 mm 3 mps 760 mmHg 38%
    23:00 +28°C° 0 mm 2 mps 759 mmHg 39%

    29 April, Monday

    Time Temperature Precipitation Wind Pressure Humidity
    00:00 +28°C° 0 mm 2 mps 759 mmHg 39%
    01:00 +28°C° 0 mm 2 mps 759 mmHg 39%
    02:00 +27°C° 0 mm 2 mps 758 mmHg 39%
    03:00 +27°C° 0 mm 3 mps 758 mmHg 39%
    04:00 +27°C° 0 mm 3 mps 758 mmHg 41%
    05:00 +26°C° 0 mm 4 mps 759 mmHg 43%
    06:00 +26°C° 0 mm 4 mps 759 mmHg 45%
    07:00 +28°C° 0 mm 5 mps 760 mmHg 42%
    08:00 +30°C° 0 mm 5 mps 760 mmHg 38%
    09:00 +32°C° 0 mm 6 mps 761 mmHg 35%
    10:00 +33°C° 0 mm 5 mps 760 mmHg 32%
    11:00 +35°C° 0 mm 5 mps 760 mmHg 29%
    12:00 +36°C° 0 mm 5 mps 760 mmHg 25%
    13:00 +36°C° 0 mm 5 mps 759 mmHg 25%
    14:00 +36°C° 0 mm 5 mps 759 mmHg 24%
    15:00 +37°C° 0 mm 5 mps 758 mmHg 23%
    16:00 +35°C° 0 mm 5 mps 758 mmHg 25%
    17:00 +34°C° 0 mm 5 mps 758 mmHg 26%
    18:00 +33°C° 0 mm 6 mps 758 mmHg 28%
    19:00 +32°C° 0 mm 5 mps 759 mmHg 30%
    20:00 +32°C° 0 mm 5 mps 759 mmHg 31%
    21:00 +30°C° 0 mm 4 mps 760 mmHg 33%
    22:00 +29°C° 0 mm 4 mps 760 mmHg 35%
    23:00 +28°C° 0 mm 4 mps 759 mmHg 38%

    30 April, Tuesday

    Time Temperature Precipitation Wind Pressure Humidity
    00:00 +28°C° 0 mm 3 mps 759 mmHg 40%
    01:00 +27°C° 0 mm 3 mps 759 mmHg 40%
    02:00 +27°C° 0 mm 3 mps 758 mmHg 40%
    03:00 +27°C° 0 mm 3 mps 758 mmHg 40%
    04:00 +27°C° 0 mm 3 mps 758 mmHg 37%
    05:00 +27°C° 0 mm 3 mps 759 mmHg 35%
    06:00 +27°C° 0 mm 3 mps 759 mmHg 33%
    07:00 +29°C° 0 mm 3 mps 759 mmHg 27%
    08:00 +32°C° 0 mm 4 mps 760 mmHg 21%
    09:00 +35°C° 0 mm 4 mps 760 mmHg 15%
    10:00 +36°C° 0 mm 4 mps 759 mmHg 14%
    11:00 +38°C° 0 mm 4 mps 759 mmHg 13%
    12:00 +40°C° 0 mm 4 mps 758 mmHg 11%
    13:00 +39°C° 0 mm 3 mps 758 mmHg 11%
    14:00 +40°C° 0 mm 3 mps 757 mmHg 11%
    15:00 +40°C° 0 mm 3 mps 757 mmHg 11%
    16:00 +39°C° 0 mm 3 mps 757 mmHg 13%
    17:00 +37°C° 0 mm 4 mps 757 mmHg 15%
    18:00 +36°C° 0 mm 5 mps 757 mmHg 17%
    19:00 +35°C° 0 mm 4 mps 757 mmHg 18%
    20:00 +34°C° 0 mm 3 mps 758 mmHg 20%
    21:00 +32°C° 0 mm 2 mps 758 mmHg 21%
    22:00 +32°C° 0 mm 2 mps 757 mmHg 21%
    23:00 +31°C° 0 mm 2 mps 757 mmHg 21%

    1 May, Wednesday

    Time Temperature Precipitation Wind Pressure Humidity
    00:00 +31°C° 0 mm 2 mps 756 mmHg 21%
    01:00 +31°C° 0 mm 2 mps 756 mmHg 21%
    02:00 +30°C° 0 mm 3 mps 755 mmHg 21%
    03:00 +30°C° 0 mm 3 mps 755 mmHg 20%
    04:00 +30°C° 0 mm 2 mps 755 mmHg 20%
    05:00 +30°C° 0 mm 2 mps 756 mmHg 21%
    06:00 +30°C° 0 mm 2 mps 756 mmHg 21%
    07:00 +32°C° 0 mm 2 mps 756 mmHg 19%
    08:00 +34°C° 0 mm 2 mps 757 mmHg 17%
    09:00 +36°C° 0 mm 2 mps 757 mmHg 15%
    10:00 +37°C° 0 mm 2 mps 756 mmHg 14%
    11:00 +39°C° 0 mm 2 mps 756 mmHg 13%
    12:00 +41°C° 0 mm 2 mps 756 mmHg 12%
    13:00 +41°C° 0 mm 2 mps 755 mmHg 12%
    14:00 +42°C° 0 mm 2 mps 755 mmHg 12%
    15:00 +42°C° 0 mm 1 mps 754 mmHg 12%
    16:00 +42°C° 0 mm 3 mps 754 mmHg 13%
    17:00 +41°C° 0 mm 4 mps 754 mmHg 15%
    18:00 +40°C° 0 mm 5 mps 754 mmHg 16%
    19:00 +37°C° 0 mm 5 mps 754 mmHg 18%
    20:00 +36°C° 0 mm 5 mps 754 mmHg 19%
    21:00 +35°C° 0 mm 5 mps 754 mmHg 20%
    22:00 +34°C° 0 mm 5 mps 754 mmHg 22%
    23:00 +34°C° 0 mm 4 mps 754 mmHg 24%
    Show more